STARLINK-35072, 65505

Orbit data source: Space-Track

STARLINK-35072, 65505 is a payload satellite owned by SpaceX/Seattle (US) in LEO that was launched on Fri, 05 Sep 2025 UTC via an FALCON 9 launch vehicle from the Air Force Eastern Test Range (AFETR). Payload-class satellites include a variety of spacecraft equipped with specific instruments for various scientific and technological missions. These include communications satellites like Starlink; space stations such as the ISS; scientific satellites like the Hubble; Earth observation satellites from companies like Planet Labs, Umbra, and HawkEye 360; GPS; miniature CubeSats for education and research; and military/defense satellites.

Loading next visibility...
Identifier
65505, 2025-198P
Orbit
LEO
Country
Flag of USUS
Related business
Manufacturer
SpaceX/Seattle
Mission
Operational Commercial Communications
Bus & Motor
STARLINK V2MO, Unknown motor
Mass
575 kg wet, ~530 kg dry
Launch date (UTC)
2025-09-05 (9 months ago)
Launch vehicle
FALCON 9
Launch site
Air Force Eastern Test Range (AFETR)
Object type
Payload
Rocket body
Debris
Shape & HBR
Box + 2 Pan, 17.7 m
Radar Cross Section
36.964 m², Large (>1 m²)

Expand to show TLE details & history
Last TLE update: 12 hours ago

TLE from 12 hours ago
0 STARLINK-35072
1 65505U 25198P   26171.35499025  .00015487  00000-0  46899-3 0  9994
2 65505  53.1587 152.3502 0001155  90.2661 269.8474 15.34369752 44368
Epoch: 2026-06-20T08:31Z
TLE epoch observation values (Epoch: 2026-06-20T08:31:11.157Z)
Latitude
-0.00002°
Longitude
115.98289°
Altitude
463.697 km
Speed
7.636 km/s
True Right ascension
10h 09m 24s
True Declination
0° 00' 00"
Sunlit
Object was in daylight at epoch
Visualization orbit readout
Latitude
Unknown
Longitude
Unknown
Altitude
Unknown
Speed
Unknown
Apparent Right ascension
Unknown
Apparent Declination
Unknown
Sunlit
N/A
Visualization observer readout
Local Sidereal Time
07:16:19
Azimuth
Unknown
Elevation
Unknown
Doppler factor
Unknown
Orbital elements
Apogee altitude
463.84 km
Perigee altitude
462.26 km
Semi-major axis
6,841.187 km
Eccentricity
0.00012
Inclination
53.1587°
RAAN
152.3502°
Arg. of periapsis
90.2661°
True anomaly
269.83416°
Mean anomaly
269.8474°
Eccentric anomaly
269.84078°
Mean motion
3.83571 °/min
Orbital period
93.85 mins
BSTAR
0.00046899
Loading maneuver chart data...
Computing Atmospheric mass density...
Loading historical data...
Loading historical data...
Loading historical data...
Loading historical data...
Loading historical data...
Loading historical data...
Loading historical data...

Documentation

Showing up to 5 results
|